UAE28Y EGKK-OMDB

Flight info

Callsign UAE28Y
Flight time 7h 1m
Altitude 39000
Route SFD4Z SFD Y47 BENBO L612 HAWKE UL612 VEULE DCT KOTAP DCT KETEX DCT KOTIS DCT KUKOR DCT UTUVA DCT TITVA DCT NOQAS DCT OTROT DCT RETNO DCT KOLON DCT RAPUR DCT RATAP DCT BTA DCT DOKAR DCT SUNEV DCT VELAD DCT MAMAR DCT ROTUN DCT NERAR DCT ORTAP DCT ARLOS UN4 SALUN N705 MMA P751 DASUM Y234 FYM/N0489F410 M872 BDB Y214 RAPMA DCT KUVSO DCT KATIT DCT PEKEM M628 RIGIL G783 ELUDA/N0500F350 G783 ASPED Q308 KIPOK Q568 IMPED IMPED3C
Aircraft A359/H-V/N

Departure

Time 2026-04-20 20:37
Airport London Gatwick Airport (EGKK)

Arrival

Time 2026-04-21 03:38
Airport Dubai International Airport (OMDB)
Time Latitude Longitude Altitude Speed Heading
2026-04-20 19:58 51.15924 -0.17959 210 ft 0 kts 78°
2026-04-20 20:20 51.15928 -0.17926 210 ft 4 kts 78°
2026-04-20 20:21 51.15926 -0.17945 214 ft 0 kts 78°
2026-04-20 20:21 51.15928 -0.17927 211 ft 10 kts 78°
2026-04-20 20:22 51.15924 -0.17957 211 ft 4 kts 78°
2026-04-20 20:22 51.15918 -0.17999 220 ft 4 kts 78°
2026-04-20 20:22 51.15914 -0.18041 214 ft 4 kts 91°
2026-04-20 20:22 51.15919 -0.18081 215 ft 4 kts 121°
2026-04-20 20:23 51.15936 -0.18110 223 ft 4 kts 160°
2026-04-20 20:23 51.15937 -0.18111 222 ft 0 kts 168°
2026-04-20 20:27 51.15935 -0.18110 210 ft 3 kts 168°
2026-04-20 20:27 51.15872 -0.18089 219 ft 15 kts 168°
2026-04-20 20:27 51.15806 -0.18066 220 ft 0 kts 167°
2026-04-20 20:27 51.15800 -0.18064 219 ft 2 kts 167°
2026-04-20 20:28 51.15767 -0.18052 218 ft 7 kts 167°
2026-04-20 20:28 51.15706 -0.18051 222 ft 10 kts 208°
2026-04-20 20:28 51.15671 -0.18170 221 ft 14 kts 255°
2026-04-20 20:28 51.15594 -0.18261 216 ft 16 kts 208°
2026-04-20 20:29 51.15483 -0.18309 215 ft 18 kts 170°
2026-04-20 20:29 51.15352 -0.18264 218 ft 15 kts 167°
2026-04-20 20:29 51.15273 -0.18236 216 ft 13 kts 167°
2026-04-20 20:29 51.15182 -0.18212 214 ft 11 kts 188°
2026-04-20 20:30 51.15166 -0.18257 215 ft 5 kts 278°
2026-04-20 20:30 51.15172 -0.18328 215 ft 8 kts 278°
2026-04-20 20:30 51.15170 -0.18437 219 ft 12 kts 260°
2026-04-20 20:30 51.15151 -0.18583 215 ft 15 kts 258°
2026-04-20 20:31 51.15127 -0.18763 219 ft 18 kts 258°
2026-04-20 20:31 51.15098 -0.18970 221 ft 20 kts 257°
2026-04-20 20:31 51.15081 -0.19089 221 ft 10 kts 257°
2026-04-20 20:31 51.15062 -0.19215 212 ft 13 kts 248°
2026-04-20 20:32 51.14987 -0.19272 219 ft 11 kts 208°
2026-04-20 20:32 51.14947 -0.19390 218 ft 14 kts 257°
2026-04-20 20:32 51.14924 -0.19562 218 ft 18 kts 258°
2026-04-20 20:32 51.14897 -0.19755 221 ft 18 kts 257°
2026-04-20 20:33 51.14867 -0.19972 215 ft 22 kts 258°
2026-04-20 20:33 51.14834 -0.20212 214 ft 18 kts 257°
2026-04-20 20:33 51.14809 -0.20398 216 ft 18 kts 257°
2026-04-20 20:33 51.14780 -0.20608 211 ft 20 kts 257°
2026-04-20 20:34 51.14748 -0.20839 215 ft 23 kts 257°
2026-04-20 20:34 51.14718 -0.21054 218 ft 16 kts 257°
2026-04-20 20:34 51.14698 -0.21203 217 ft 11 kts 258°
2026-04-20 20:34 51.14678 -0.21315 217 ft 8 kts 236°
2026-04-20 20:35 51.14637 -0.21328 219 ft 5 kts 176°
2026-04-20 20:35 51.14599 -0.21318 218 ft 7 kts 168°
2026-04-20 20:35 51.14544 -0.21273 220 ft 10 kts 131°
2026-04-20 20:35 51.14524 -0.21156 213 ft 12 kts 84°
2026-04-20 20:36 51.14539 -0.21028 218 ft 12 kts 78°
2026-04-20 20:36 51.14570 -0.20802 215 ft 46 kts 77°
2026-04-20 20:36 51.14686 -0.19969 218 ft 106 kts 77°
2026-04-20 20:36 51.14883 -0.18542 220 ft 156 kts 77°
2026-04-20 20:37 51.15085 -0.16886 921 ft 145 kts 79°
2026-04-20 20:37 51.15261 -0.15306 1520 ft 148 kts 77°
2026-04-20 20:37 51.15505 -0.13618 1790 ft 165 kts 75°
2026-04-20 20:37 51.15791 -0.11733 2025 ft 187 kts 75°
2026-04-20 20:38 51.16072 -0.09624 2421 ft 201 kts 80°
2026-04-20 20:38 51.15931 -0.07376 2998 ft 213 kts 108°
2026-04-20 20:38 51.14966 -0.05502 3462 ft 236 kts 143°
2026-04-20 20:38 51.13342 -0.04584 3797 ft 259 kts 165°
2026-04-20 20:39 51.11535 -0.04051 4328 ft 268 kts 167°
2026-04-20 20:39 51.09689 -0.03515 4967 ft 272 kts 167°
2026-04-20 20:39 51.07830 -0.02853 5582 ft 275 kts 162°
2026-04-20 20:39 51.06015 -0.01995 5930 ft 277 kts 160°
2026-04-20 20:40 51.04170 -0.01086 6006 ft 278 kts 161°
2026-04-20 20:40 51.02290 -0.00168 6182 ft 281 kts 161°
2026-04-20 20:40 51.00433 0.00727 6805 ft 283 kts 161°
2026-04-20 20:40 50.98548 0.01624 7518 ft 283 kts 162°
2026-04-20 20:41 50.96654 0.02521 8195 ft 284 kts 162°
2026-04-20 20:41 50.94753 0.03425 8853 ft 286 kts 162°
2026-04-20 20:41 50.92836 0.04329 9514 ft 289 kts 163°
2026-04-20 20:41 50.90903 0.05238 10178 ft 291 kts 163°
2026-04-20 20:42 50.88955 0.06154 10746 ft 294 kts 163°
2026-04-20 20:42 50.86978 0.07084 11284 ft 299 kts 164°
2026-04-20 20:42 50.84974 0.08030 11833 ft 303 kts 164°
2026-04-20 20:42 50.82943 0.08979 12444 ft 305 kts 164°
2026-04-20 20:43 50.80897 0.09935 13030 ft 309 kts 165°
2026-04-20 20:43 50.78826 0.10902 13614 ft 312 kts 165°
2026-04-20 20:43 50.76710 0.11724 14157 ft 315 kts 174°
2026-04-20 20:43 50.74513 0.11725 14547 ft 321 kts 188°
2026-04-20 20:44 50.72268 0.11184 14790 ft 333 kts 194°
2026-04-20 20:44 50.69967 0.10355 15002 ft 345 kts 197°
2026-04-20 20:44 50.67600 0.09389 15235 ft 358 kts 198°
2026-04-20 20:44 50.65154 0.08379 15455 ft 369 kts 198°
2026-04-20 20:45 50.62622 0.07367 15650 ft 381 kts 197°
2026-04-20 20:45 50.60012 0.06366 15852 ft 392 kts 197°
2026-04-20 20:45 50.57330 0.05372 16111 ft 400 kts 197°
2026-04-20 20:45 50.54604 0.04386 16498 ft 404 kts 197°
2026-04-20 20:46 50.51917 0.03426 16918 ft 407 kts 197°
2026-04-20 20:46 50.49115 0.02622 17310 ft 414 kts 190°
2026-04-20 20:46 50.46213 0.02570 17718 ft 422 kts 178°
2026-04-20 20:46 50.43320 0.03554 18101 ft 431 kts 163°
2026-04-20 20:47 50.40589 0.05561 18504 ft 436 kts 153°
2026-04-20 20:47 50.37976 0.08010 18877 ft 439 kts 149°
2026-04-20 20:47 50.35423 0.10663 19225 ft 442 kts 147°
2026-04-20 20:47 50.32878 0.13405 19571 ft 445 kts 147°
2026-04-20 20:48 50.30321 0.16161 19895 ft 448 kts 148°
2026-04-20 20:48 50.27739 0.18910 20245 ft 450 kts 148°
2026-04-20 20:48 50.25133 0.21642 20582 ft 452 kts 149°
2026-04-20 20:48 50.22506 0.24364 20919 ft 454 kts 149°
2026-04-20 20:49 50.19893 0.27048 21256 ft 457 kts 149°
2026-04-20 20:49 50.17200 0.29818 21577 ft 459 kts 150°
2026-04-20 20:49 50.14528 0.32560 21895 ft 461 kts 150°
2026-04-20 20:49 50.11838 0.35317 22192 ft 464 kts 150°
2026-04-20 20:50 50.09171 0.38049 22482 ft 466 kts 150°
2026-04-20 20:50 50.06451 0.40832 22810 ft 469 kts 150°
2026-04-20 20:50 50.03720 0.43624 23121 ft 471 kts 150°
2026-04-20 20:50 50.00970 0.46432 23442 ft 474 kts 150°
2026-04-20 20:51 49.98197 0.49258 23658 ft 478 kts 150°
2026-04-20 20:51 49.95407 0.52099 23892 ft 481 kts 151°
2026-04-20 20:51 49.92595 0.54959 24099 ft 485 kts 151°
2026-04-20 20:51 49.89771 0.57827 24367 ft 486 kts 151°
2026-04-20 20:52 49.86934 0.60704 24616 ft 488 kts 151°
2026-04-20 20:52 49.84091 0.63602 24884 ft 490 kts 150°
2026-04-20 20:52 49.81284 0.66621 25164 ft 493 kts 148°
2026-04-20 20:52 49.78502 0.69728 25417 ft 495 kts 148°
2026-04-20 20:53 49.75715 0.72877 25671 ft 497 kts 148°
2026-04-20 20:53 49.72916 0.76032 25940 ft 498 kts 148°
2026-04-20 20:53 49.70106 0.79178 26242 ft 499 kts 148°
2026-04-20 20:53 49.67282 0.82314 26499 ft 501 kts 148°
2026-04-20 20:54 49.64437 0.85454 26759 ft 503 kts 148°
2026-04-20 20:54 49.61582 0.88591 27019 ft 505 kts 148°
2026-04-20 20:54 49.58711 0.91738 27276 ft 509 kts 148°
2026-04-20 20:54 49.55810 0.94909 27472 ft 512 kts 148°
2026-04-20 20:55 49.52896 0.98091 27765 ft 514 kts 148°
2026-04-20 20:55 49.49978 1.01276 28096 ft 514 kts 148°
2026-04-20 20:55 49.47060 1.04456 28417 ft 515 kts 148°
2026-04-20 20:55 49.44127 1.07648 28682 ft 518 kts 148°
2026-04-20 20:56 49.41176 1.10854 28933 ft 521 kts 148°
2026-04-20 20:56 49.38212 1.14069 29214 ft 523 kts 148°
2026-04-20 20:56 49.35268 1.17259 29474 ft 525 kts 148°
2026-04-20 20:56 49.32393 1.20369 29721 ft 527 kts 148°
2026-04-20 20:57 49.29389 1.23614 29972 ft 530 kts 149°
2026-04-20 20:57 49.26367 1.26874 30205 ft 533 kts 149°
2026-04-20 20:57 49.23378 1.30093 30414 ft 535 kts 148°
2026-04-20 20:57 49.20333 1.33368 30682 ft 536 kts 148°
2026-04-20 20:58 49.17291 1.36634 31029 ft 532 kts 148°
2026-04-20 20:58 49.14258 1.39888 31252 ft 534 kts 148°
2026-04-20 20:58 49.08124 1.46446 31613 ft 539 kts 148°
2026-04-20 20:59 49.05059 1.49719 31988 ft 536 kts 148°
2026-04-20 20:59 49.02011 1.52969 32383 ft 533 kts 148°
2026-04-20 20:59 48.98977 1.56199 32765 ft 531 kts 148°
2026-04-20 20:59 48.95958 1.59407 33159 ft 529 kts 148°
2026-04-20 21:00 48.92948 1.62600 33541 ft 527 kts 148°
2026-04-20 21:00 48.89947 1.65778 33884 ft 525 kts 148°
2026-04-20 21:00 48.86952 1.68944 34230 ft 523 kts 148°
2026-04-20 21:00 48.83969 1.72093 34505 ft 522 kts 148°
2026-04-20 21:01 48.80985 1.75238 34757 ft 522 kts 148°
2026-04-20 21:01 48.77993 1.78387 34918 ft 524 kts 148°
2026-04-20 21:01 48.75001 1.81531 35150 ft 524 kts 148°
2026-04-20 21:01 48.72010 1.84670 35390 ft 523 kts 148°
2026-04-20 21:02 48.70028 1.86748 35556 ft 522 kts 148°
2026-04-20 21:02 48.67044 1.89873 35795 ft 522 kts 148°
2026-04-20 21:02 48.64058 1.92995 36023 ft 522 kts 148°
2026-04-20 21:02 48.61073 1.96112 36264 ft 521 kts 148°
2026-04-20 21:03 48.58093 1.99219 36525 ft 520 kts 148°
2026-04-20 21:03 48.55118 2.02316 36728 ft 520 kts 148°
2026-04-20 21:03 48.52135 2.05416 36950 ft 520 kts 148°
2026-04-20 21:03 48.49156 2.08507 37144 ft 520 kts 148°
2026-04-20 21:04 48.46179 2.11592 37353 ft 520 kts 148°
2026-04-20 21:04 48.43198 2.14678 37550 ft 519 kts 148°
2026-04-20 21:04 48.40221 2.17754 37698 ft 520 kts 148°
2026-04-20 21:04 48.37233 2.20837 37821 ft 521 kts 148°
2026-04-20 21:05 48.34248 2.23913 38027 ft 520 kts 148°
2026-04-20 21:05 48.31250 2.26958 38212 ft 519 kts 150°
2026-04-20 21:05 48.28094 2.29525 38383 ft 514 kts 160°
2026-04-20 21:05 48.24752 2.31372 38534 ft 510 kts 166°
2026-04-20 21:06 48.21360 2.32889 38684 ft 509 kts 168°
2026-04-20 21:06 48.17943 2.34284 38815 ft 508 kts 169°
2026-04-20 21:06 48.14527 2.35616 38957 ft 507 kts 170°
2026-04-20 21:06 48.11118 2.36961 39084 ft 507 kts 168°
2026-04-20 21:07 48.04356 2.40202 39135 ft 513 kts 165°
2026-04-20 21:07 47.97604 2.43699 39113 ft 513 kts 165°
2026-04-20 21:08 47.90853 2.47132 39124 ft 512 kts 165°
2026-04-20 21:08 47.84096 2.50490 39122 ft 512 kts 166°
2026-04-20 21:09 47.77334 2.53816 39109 ft 512 kts 166°
2026-04-20 21:09 47.70566 2.57136 39118 ft 512 kts 166°
2026-04-20 21:10 47.63852 2.60424 39119 ft 512 kts 166°
2026-04-20 21:10 47.57090 2.63728 39110 ft 512 kts 166°
2026-04-20 21:11 47.50329 2.67022 39107 ft 511 kts 166°
2026-04-20 21:11 47.43571 2.70306 39101 ft 511 kts 166°
2026-04-20 21:12 47.36818 2.73579 39103 ft 511 kts 166°
2026-04-20 21:12 47.30069 2.76842 39098 ft 510 kts 166°
2026-04-20 21:13 47.23333 2.80089 39095 ft 509 kts 166°
2026-04-20 21:13 47.16593 2.83334 39091 ft 509 kts 166°
2026-04-20 21:14 47.09859 2.86558 39091 ft 509 kts 166°
2026-04-20 21:14 47.03119 2.89777 39083 ft 510 kts 166°
2026-04-20 21:15 46.96370 2.92992 39080 ft 510 kts 166°
2026-04-20 21:15 46.89616 2.96204 39074 ft 510 kts 166°
2026-04-20 21:16 46.82868 2.99405 39075 ft 509 kts 166°
2026-04-20 21:16 46.76127 3.02594 39072 ft 509 kts 166°
2026-04-20 21:17 46.69382 3.05775 39073 ft 509 kts 166°
2026-04-20 21:17 46.62682 3.08927 39070 ft 509 kts 166°
2026-04-20 21:18 46.55891 3.12115 39071 ft 509 kts 166°
2026-04-20 21:18 46.49219 3.15397 39063 ft 510 kts 164°
2026-04-20 21:19 46.42582 3.19044 39065 ft 510 kts 163°
2026-04-20 21:20 46.32616 3.24514 39062 ft 511 kts 163°
2026-04-20 21:20 46.25958 3.28092 39062 ft 510 kts 164°
2026-04-20 21:21 46.19301 3.31642 39058 ft 510 kts 164°
2026-04-20 21:21 46.12651 3.35179 39059 ft 510 kts 164°
2026-04-20 21:22 46.06004 3.38708 39056 ft 508 kts 164°
2026-04-20 21:22 45.99379 3.42218 39059 ft 507 kts 164°
2026-04-20 21:23 45.92752 3.45719 39059 ft 507 kts 164°
2026-04-20 21:23 45.86209 3.49540 39055 ft 511 kts 155°
2026-04-20 21:24 45.80120 3.54857 39054 ft 513 kts 150°
2026-04-20 21:24 45.74151 3.60489 39055 ft 514 kts 149°
2026-04-20 21:25 45.68193 3.66151 39060 ft 514 kts 150°
2026-04-20 21:25 45.62226 3.71772 39064 ft 513 kts 150°
2026-04-20 21:26 45.56254 3.77355 39065 ft 513 kts 150°
2026-04-20 21:26 45.50274 3.82926 39055 ft 513 kts 150°
2026-04-20 21:27 45.44285 3.88493 39057 ft 514 kts 150°
2026-04-20 21:27 45.38348 3.94199 39057 ft 518 kts 144°
2026-04-20 21:28 45.33398 4.01589 39058 ft 523 kts 130°
2026-04-20 21:28 45.29053 4.09893 39058 ft 524 kts 127°
2026-04-20 21:29 45.24811 4.18315 39058 ft 524 kts 127°
2026-04-20 21:29 45.20555 4.26711 39059 ft 524 kts 128°
2026-04-20 21:30 45.16268 4.35070 39059 ft 524 kts 128°
2026-04-20 21:30 45.11959 4.43407 39055 ft 524 kts 128°
2026-04-20 21:31 45.07449 4.51499 39049 ft 523 kts 133°
2026-04-20 21:31 45.02608 4.59165 39045 ft 523 kts 134°
2026-04-20 21:32 44.97753 4.66834 39030 ft 524 kts 134°
2026-04-20 21:32 44.92948 4.74563 39026 ft 524 kts 133°
2026-04-20 21:33 44.88159 4.82323 39014 ft 524 kts 133°
2026-04-20 21:33 44.83363 4.90083 39019 ft 525 kts 133°
2026-04-20 21:34 44.78587 4.97784 39019 ft 526 kts 133°
2026-04-20 21:34 44.73767 5.05530 39014 ft 526 kts 133°
2026-04-20 21:35 44.68938 5.13270 39012 ft 527 kts 133°
2026-04-20 21:35 44.64099 5.21001 39004 ft 526 kts 133°
2026-04-20 21:36 44.59264 5.28708 39007 ft 526 kts 133°
2026-04-20 21:36 44.54421 5.36403 39000 ft 526 kts 133°
2026-04-20 21:37 44.49576 5.44080 39000 ft 526 kts 133°
2026-04-20 21:37 44.44720 5.51760 38995 ft 526 kts 134°
2026-04-20 21:38 44.39865 5.59417 38989 ft 526 kts 134°
2026-04-20 21:38 44.35454 5.67600 38982 ft 528 kts 126°
2026-04-20 21:39 44.31303 5.76065 38981 ft 528 kts 125°
2026-04-20 21:39 44.27195 5.84558 38962 ft 528 kts 125°
2026-04-20 21:40 44.23080 5.93028 38973 ft 527 kts 125°
2026-04-20 21:40 44.18954 6.01470 38970 ft 527 kts 126°
2026-04-20 21:41 44.14817 6.09897 38961 ft 527 kts 126°
2026-04-20 21:41 44.10681 6.18294 38970 ft 525 kts 126°
2026-04-20 21:42 44.06546 6.26669 38966 ft 525 kts 126°
2026-04-20 21:42 44.02405 6.35030 38954 ft 525 kts 126°
2026-04-20 21:43 43.98249 6.43394 38964 ft 526 kts 126°
2026-04-20 21:43 43.94087 6.51752 38952 ft 528 kts 126°
2026-04-20 21:44 43.89920 6.60097 38953 ft 530 kts 126°
2026-04-20 21:44 43.85712 6.68499 38949 ft 531 kts 126°
2026-04-20 21:45 43.81499 6.76889 38944 ft 530 kts 126°
2026-04-20 21:45 43.77287 6.85254 38953 ft 529 kts 126°
2026-04-20 21:46 43.73068 6.93605 38946 ft 530 kts 126°
2026-04-20 21:46 43.68931 7.02021 38951 ft 531 kts 124°
2026-04-20 21:47 43.64962 7.10607 38944 ft 530 kts 123°
2026-04-20 21:47 43.60998 7.19179 38936 ft 529 kts 124°
2026-04-20 21:48 43.57005 7.27699 38928 ft 528 kts 124°
2026-04-20 21:48 43.53045 7.36079 38934 ft 527 kts 124°
2026-04-20 21:49 43.49036 7.44532 38932 ft 527 kts 124°
2026-04-20 21:49 43.45019 7.52977 38927 ft 527 kts 124°
2026-04-20 21:50 43.41086 7.61227 38935 ft 527 kts 124°
2026-04-20 21:50 43.37052 7.69665 38918 ft 528 kts 124°
2026-04-20 21:51 43.33039 7.78036 38935 ft 528 kts 124°
2026-04-20 21:51 43.28995 7.86446 38935 ft 528 kts 124°
2026-04-20 21:52 43.25602 7.93484 38939 ft 528 kts 124°
2026-04-20 21:52 43.21548 8.01871 38935 ft 528 kts 124°
2026-04-20 21:53 43.17489 8.10247 38940 ft 528 kts 124°
2026-04-20 21:53 43.13417 8.18623 38921 ft 528 kts 124°
2026-04-20 21:54 43.09350 8.26967 38942 ft 526 kts 124°
2026-04-20 21:54 43.05290 8.35272 38948 ft 525 kts 125°
2026-04-20 21:55 43.01246 8.43521 38940 ft 526 kts 125°
2026-04-20 21:55 42.97173 8.51808 38945 ft 526 kts 125°
2026-04-20 21:56 42.93091 8.60089 38940 ft 526 kts 125°
2026-04-20 21:56 42.89107 8.68455 38932 ft 526 kts 120°
2026-04-20 21:57 42.85565 8.77145 38936 ft 523 kts 119°
2026-04-20 21:57 42.82110 8.85846 38935 ft 522 kts 119°
2026-04-20 21:58 42.78658 8.94549 38937 ft 522 kts 119°
2026-04-20 21:58 42.75195 9.03232 38938 ft 522 kts 119°
2026-04-20 21:59 42.71722 9.11898 38950 ft 523 kts 119°
2026-04-20 21:59 42.68224 9.20595 38945 ft 525 kts 119°
2026-04-20 22:00 42.64714 9.29309 38954 ft 526 kts 119°
2026-04-20 22:00 42.61198 9.38010 38961 ft 525 kts 120°
2026-04-20 22:01 42.57751 9.46749 38971 ft 526 kts 114°
2026-04-20 22:01 42.55085 9.55992 38966 ft 527 kts 110°
2026-04-20 22:02 42.52604 9.65343 38963 ft 527 kts 109°
2026-04-20 22:02 42.50249 9.74750 38964 ft 527 kts 104°
2026-04-20 22:03 42.48447 9.84371 38964 ft 527 kts 109°
2026-04-20 22:03 42.45216 9.93218 38962 ft 524 kts 122°
2026-04-20 22:04 42.41344 10.01570 38964 ft 524 kts 124°
2026-04-20 22:04 42.37358 10.09819 38963 ft 524 kts 124°
2026-04-20 22:05 42.33375 10.18063 38964 ft 524 kts 124°
2026-04-20 22:05 42.29432 10.26261 38961 ft 524 kts 124°
2026-04-20 22:06 42.25459 10.34520 38960 ft 524 kts 124°
2026-04-20 22:06 42.21484 10.42765 38958 ft 524 kts 124°
2026-04-20 22:07 42.17503 10.50996 38958 ft 524 kts 124°
2026-04-20 22:07 42.13514 10.59221 38962 ft 524 kts 124°
2026-04-20 22:08 42.09513 10.67446 38956 ft 526 kts 124°
2026-04-20 22:08 42.05404 10.75576 38960 ft 524 kts 131°
2026-04-20 22:09 42.00487 10.82766 38961 ft 522 kts 136°
2026-04-20 22:09 41.95373 10.89694 38964 ft 522 kts 137°
2026-04-20 22:10 41.90227 10.96568 38966 ft 522 kts 137°
2026-04-20 22:10 41.85086 11.03447 38962 ft 521 kts 137°
2026-04-20 22:11 41.79965 11.10309 38968 ft 520 kts 137°
2026-04-20 22:11 41.74842 11.17169 38969 ft 520 kts 137°
2026-04-20 22:12 41.69719 11.24010 38971 ft 520 kts 137°
2026-04-20 22:12 41.64591 11.30840 38971 ft 520 kts 137°
2026-04-20 22:13 41.59466 11.37652 38987 ft 519 kts 138°
2026-04-20 22:13 41.54336 11.44452 38970 ft 519 kts 138°
2026-04-20 22:14 41.49207 11.51236 38977 ft 519 kts 138°
2026-04-20 22:14 41.44071 11.58012 38993 ft 519 kts 138°
2026-04-20 22:15 41.38932 11.64777 38978 ft 519 kts 138°
2026-04-20 22:15 41.33795 11.71524 38989 ft 519 kts 138°
2026-04-20 22:16 41.28651 11.78263 38991 ft 519 kts 138°
2026-04-20 22:16 41.23542 11.84942 38991 ft 519 kts 138°
2026-04-20 22:17 41.18391 11.91659 38990 ft 519 kts 138°
2026-04-20 22:17 41.13240 11.98361 38990 ft 519 kts 138°
2026-04-20 22:18 41.08089 12.05049 38992 ft 518 kts 138°
2026-04-20 22:18 41.02928 12.11731 38998 ft 519 kts 138°
2026-04-20 22:19 40.97757 12.18412 38999 ft 519 kts 138°
2026-04-20 22:19 40.92582 12.25084 39002 ft 519 kts 139°
2026-04-20 22:20 40.87408 12.31740 39000 ft 519 kts 139°
2026-04-20 22:20 40.82239 12.38379 39007 ft 518 kts 139°
2026-04-20 22:21 40.77058 12.45006 39007 ft 519 kts 139°
2026-04-20 22:21 40.71864 12.51634 39007 ft 520 kts 139°
2026-04-20 22:22 40.66667 12.58255 39007 ft 520 kts 139°
2026-04-20 22:22 40.61468 12.64865 39012 ft 519 kts 139°
2026-04-20 22:23 40.56269 12.71460 39013 ft 519 kts 139°
2026-04-20 22:23 40.51066 12.78044 39019 ft 519 kts 139°
2026-04-20 22:24 40.45887 12.84582 39015 ft 520 kts 139°
2026-04-20 22:24 40.40663 12.91164 39015 ft 521 kts 139°
2026-04-20 22:25 40.35436 12.97733 39020 ft 520 kts 139°
2026-04-20 22:25 40.30209 13.04290 39020 ft 520 kts 139°
2026-04-20 22:26 40.24979 13.10834 39020 ft 520 kts 139°
2026-04-20 22:26 40.19741 13.17372 39021 ft 521 kts 139°
2026-04-20 22:27 40.11864 13.27177 39023 ft 522 kts 139°
2026-04-20 22:27 40.06597 13.33716 39022 ft 523 kts 139°
2026-04-20 22:28 40.01322 13.40251 39023 ft 523 kts 139°
2026-04-20 22:28 39.96040 13.46779 39024 ft 523 kts 139°
2026-04-20 22:29 39.90757 13.53293 39030 ft 523 kts 139°
2026-04-20 22:29 39.85464 13.59805 39029 ft 524 kts 139°
2026-04-20 22:30 39.80164 13.66312 39032 ft 524 kts 139°
2026-04-20 22:30 39.74862 13.72806 39031 ft 524 kts 140°
2026-04-20 22:31 39.69591 13.79249 39032 ft 524 kts 140°
2026-04-20 22:31 39.64283 13.85722 39046 ft 524 kts 140°
2026-04-20 22:32 39.58965 13.92193 39031 ft 525 kts 140°
2026-04-20 22:32 39.53633 13.98666 39034 ft 525 kts 140°
2026-04-20 22:33 39.48300 14.05126 39034 ft 525 kts 140°
2026-04-20 22:33 39.42960 14.11582 39037 ft 525 kts 140°
2026-04-20 22:34 39.37620 14.18023 39019 ft 525 kts 140°
2026-04-20 22:34 39.32279 14.24452 39040 ft 525 kts 140°
2026-04-20 22:35 39.27332 14.31436 39038 ft 528 kts 133°
2026-04-20 22:35 39.22592 14.38691 39032 ft 529 kts 132°
2026-04-20 22:36 39.17885 14.45975 39038 ft 529 kts 132°
2026-04-20 22:36 39.13166 14.53248 39038 ft 529 kts 132°
2026-04-20 22:37 39.08437 14.60498 39029 ft 529 kts 132°
2026-04-20 22:37 39.03705 14.67728 39033 ft 528 kts 132°
2026-04-20 22:38 38.99001 14.74898 39031 ft 528 kts 132°
2026-04-20 22:38 38.94263 14.82105 39031 ft 528 kts 132°
2026-04-20 22:39 38.89522 14.89301 39030 ft 528 kts 133°
2026-04-20 22:39 38.84774 14.96491 39037 ft 528 kts 133°
2026-04-20 22:40 38.80022 15.03670 39044 ft 528 kts 133°
2026-04-20 22:40 38.75264 15.10843 39030 ft 528 kts 133°
2026-04-20 22:41 38.70504 15.18001 39027 ft 528 kts 133°
2026-04-20 22:41 38.66546 15.23943 39026 ft 528 kts 133°
2026-04-20 22:42 38.61777 15.31086 39032 ft 528 kts 133°
2026-04-20 22:42 38.56998 15.38229 39037 ft 529 kts 133°
2026-04-20 22:43 38.52213 15.45363 39037 ft 528 kts 133°
2026-04-20 22:43 38.47431 15.52479 39040 ft 528 kts 133°
2026-04-20 22:44 38.42646 15.59583 39039 ft 528 kts 133°
2026-04-20 22:44 38.37859 15.66674 39037 ft 528 kts 133°
2026-04-20 22:45 38.33061 15.73764 39035 ft 528 kts 133°
2026-04-20 22:45 38.28261 15.80844 39034 ft 528 kts 133°
2026-04-20 22:46 38.23456 15.87914 39029 ft 528 kts 133°
2026-04-20 22:46 38.18653 15.94966 39034 ft 527 kts 133°
2026-04-20 22:47 38.13845 16.02008 39037 ft 528 kts 133°
2026-04-20 22:47 38.09030 16.09049 39029 ft 528 kts 133°
2026-04-20 22:48 38.04207 16.16084 39031 ft 528 kts 133°
2026-04-20 22:48 37.99414 16.23060 39023 ft 528 kts 133°
2026-04-20 22:49 37.94588 16.30069 39022 ft 528 kts 133°
2026-04-20 22:49 37.89757 16.37070 39019 ft 527 kts 133°
2026-04-20 22:50 37.84926 16.44055 39023 ft 527 kts 133°
2026-04-20 22:50 37.80090 16.51033 39023 ft 527 kts 133°
2026-04-20 22:51 37.75252 16.57999 39026 ft 527 kts 133°
2026-04-20 22:51 37.70408 16.64957 39028 ft 527 kts 134°
2026-04-20 22:52 37.65564 16.71902 39031 ft 527 kts 134°
2026-04-20 22:52 37.60712 16.78843 39034 ft 528 kts 134°
2026-04-20 22:53 37.55852 16.85779 39031 ft 528 kts 134°
2026-04-20 22:53 37.50989 16.92707 39039 ft 528 kts 134°
2026-04-20 22:54 37.46123 16.99624 39037 ft 528 kts 134°
2026-04-20 22:54 37.41251 17.06533 39041 ft 528 kts 134°
2026-04-20 22:55 37.36372 17.13439 39038 ft 528 kts 134°
2026-04-20 22:55 37.31492 17.20330 39042 ft 528 kts 134°
2026-04-20 22:56 37.26608 17.27214 39042 ft 528 kts 134°
2026-04-20 22:56 37.21722 17.34085 39042 ft 528 kts 134°
2026-04-20 22:57 37.16833 17.40947 39049 ft 528 kts 134°
2026-04-20 22:57 37.11931 17.47812 39045 ft 529 kts 134°
2026-04-20 22:58 37.07021 17.54672 39045 ft 529 kts 134°
2026-04-20 22:58 37.02109 17.61523 39050 ft 529 kts 134°
2026-04-20 22:59 36.97225 17.68320 39050 ft 529 kts 134°
2026-04-20 22:59 36.92305 17.75153 39061 ft 529 kts 134°
2026-04-20 23:00 36.87374 17.81987 39058 ft 530 kts 134°
2026-04-20 23:00 36.82436 17.88815 39058 ft 530 kts 134°
2026-04-20 23:01 36.77491 17.95641 39058 ft 529 kts 134°
2026-04-20 23:01 36.72552 18.02444 39059 ft 529 kts 134°
2026-04-20 23:02 36.67608 18.09240 39062 ft 529 kts 135°
2026-04-20 23:02 36.62661 18.16024 39062 ft 529 kts 135°
2026-04-20 23:03 36.57709 18.22803 39064 ft 529 kts 135°
2026-04-20 23:03 36.52757 18.29572 39064 ft 529 kts 135°
2026-04-20 23:04 36.48628 18.37152 39063 ft 532 kts 118°
2026-04-20 23:04 36.45384 18.45415 39064 ft 533 kts 116°
2026-04-20 23:05 36.42283 18.53789 39064 ft 534 kts 115°
2026-04-20 23:05 36.39174 18.62167 39067 ft 534 kts 116°
2026-04-20 23:06 36.36035 18.70523 39070 ft 534 kts 116°
2026-04-20 23:06 36.32899 18.78814 39074 ft 534 kts 116°
2026-04-20 23:07 36.29732 18.87160 39070 ft 535 kts 116°
2026-04-20 23:07 36.26556 18.95508 39070 ft 536 kts 116°
2026-04-20 23:08 36.23376 19.03849 39072 ft 536 kts 116°
2026-04-20 23:08 36.20188 19.12189 39075 ft 536 kts 116°
2026-04-20 23:09 36.16992 19.20526 39073 ft 537 kts 116°
2026-04-20 23:09 36.13786 19.28870 39072 ft 537 kts 116°
2026-04-20 23:10 36.10572 19.37210 39067 ft 537 kts 116°
2026-04-20 23:10 36.07356 19.45536 39073 ft 537 kts 116°
2026-04-20 23:11 36.04130 19.53864 39075 ft 538 kts 116°
2026-04-20 23:11 36.00897 19.62190 39075 ft 538 kts 116°
2026-04-20 23:12 35.97653 19.70522 39078 ft 538 kts 116°
2026-04-20 23:12 35.94405 19.78843 39080 ft 538 kts 117°
2026-04-20 23:13 35.91148 19.87166 39078 ft 539 kts 117°
2026-04-20 23:13 35.87879 19.95494 39078 ft 540 kts 117°
2026-04-20 23:14 35.84605 20.03818 39081 ft 540 kts 117°
2026-04-20 23:14 35.81323 20.12140 39083 ft 540 kts 117°
2026-04-20 23:15 35.78035 20.20455 39081 ft 541 kts 117°
2026-04-20 23:15 35.74732 20.28786 39080 ft 541 kts 117°
2026-04-20 23:16 35.71424 20.37108 39083 ft 541 kts 117°
2026-04-20 23:16 35.68132 20.45371 39091 ft 541 kts 117°
2026-04-20 23:17 35.64814 20.53676 39088 ft 542 kts 117°
2026-04-20 23:17 35.61484 20.61991 39075 ft 542 kts 117°
2026-04-20 23:18 35.58148 20.70300 39074 ft 542 kts 117°
2026-04-20 23:18 35.54806 20.78601 39074 ft 542 kts 117°
2026-04-20 23:19 35.51456 20.86903 39084 ft 544 kts 117°
2026-04-20 23:19 35.48088 20.95225 39083 ft 545 kts 118°
2026-04-20 23:20 35.44713 21.03546 39080 ft 545 kts 118°
2026-04-20 23:20 35.41334 21.11857 39081 ft 545 kts 118°
2026-04-20 23:21 35.37944 21.20170 39081 ft 546 kts 118°
2026-04-20 23:21 35.34569 21.28430 39078 ft 546 kts 118°
2026-04-20 23:22 35.31161 21.36747 39078 ft 546 kts 118°
2026-04-20 23:22 35.27749 21.45053 39078 ft 546 kts 118°
2026-04-20 23:23 35.24333 21.53349 39071 ft 546 kts 118°
2026-04-20 23:23 35.20913 21.61634 39070 ft 546 kts 118°
2026-04-20 23:24 35.17487 21.69913 39073 ft 546 kts 118°
2026-04-20 23:24 35.14057 21.78181 39087 ft 546 kts 118°
2026-04-20 23:25 35.10617 21.86450 39070 ft 547 kts 118°
2026-04-20 23:25 35.07168 21.94724 39073 ft 547 kts 118°
2026-04-20 23:26 35.03711 22.02994 39087 ft 547 kts 118°
2026-04-20 23:26 35.00250 22.11253 39071 ft 547 kts 118°
2026-04-20 23:27 34.96780 22.19516 39076 ft 548 kts 118°
2026-04-20 23:27 34.93322 22.27727 39073 ft 548 kts 119°
2026-04-20 23:28 34.89834 22.35991 39072 ft 548 kts 119°
2026-04-20 23:28 34.86342 22.44243 39073 ft 548 kts 119°
2026-04-20 23:29 34.82843 22.52493 39069 ft 548 kts 119°
2026-04-20 23:29 34.79339 22.60734 39071 ft 548 kts 119°
2026-04-20 23:30 34.75829 22.68969 39074 ft 548 kts 119°
2026-04-20 23:30 34.72314 22.77195 39070 ft 548 kts 119°
2026-04-20 23:31 34.68789 22.85424 39072 ft 550 kts 119°
2026-04-20 23:31 34.65253 22.93661 39072 ft 550 kts 119°
2026-04-20 23:32 34.61713 23.01890 39072 ft 550 kts 119°
2026-04-20 23:32 34.58799 23.08749 39072 ft 550 kts 119°
2026-04-20 23:33 34.55310 23.17020 39061 ft 551 kts 119°
2026-04-20 23:33 34.51804 23.25299 39075 ft 552 kts 119°
2026-04-20 23:34 34.48285 23.33569 39071 ft 552 kts 119°
2026-04-20 23:34 34.44759 23.41828 39074 ft 552 kts 119°
2026-04-20 23:35 34.39455 23.54216 39071 ft 552 kts 119°
2026-04-20 23:36 34.35910 23.62471 39067 ft 553 kts 120°
2026-04-20 23:36 34.32361 23.70717 39067 ft 552 kts 120°
2026-04-20 23:37 34.28806 23.78953 39068 ft 553 kts 120°
2026-04-20 23:37 34.25244 23.87189 39066 ft 553 kts 120°
2026-04-20 23:38 34.21673 23.95424 39068 ft 553 kts 120°
2026-04-20 23:38 34.18099 24.03648 39065 ft 553 kts 120°
2026-04-20 23:39 34.14516 24.11872 39068 ft 554 kts 120°
2026-04-20 23:39 34.10920 24.20106 39064 ft 555 kts 120°
2026-04-20 23:40 34.07316 24.28341 39060 ft 555 kts 120°
2026-04-20 23:40 34.03706 24.36568 39062 ft 555 kts 120°
2026-04-20 23:41 33.99795 24.44478 39065 ft 550 kts 132°
2026-04-20 23:41 33.94504 24.51021 39043 ft 544 kts 142°
2026-04-20 23:42 33.88878 24.57103 39064 ft 544 kts 143°
2026-04-20 23:42 33.83203 24.63110 39064 ft 544 kts 143°
2026-04-20 23:43 33.79851 24.66671 39064 ft 544 kts 143°
2026-04-20 23:43 33.78159 24.68473 39066 ft 544 kts 143°
2026-04-20 23:44 33.72505 24.74512 39069 ft 544 kts 143°
2026-04-20 23:44 33.66853 24.80551 39067 ft 544 kts 143°
2026-04-20 23:45 33.61197 24.86585 39062 ft 544 kts 143°
2026-04-20 23:45 33.55544 24.92602 39067 ft 543 kts 143°
2026-04-20 23:46 33.49892 24.98605 39067 ft 543 kts 143°
2026-04-20 23:46 33.44236 25.04602 39066 ft 543 kts 143°
2026-04-20 23:47 33.38573 25.10595 39070 ft 543 kts 143°
2026-04-20 23:47 33.32911 25.16577 39069 ft 543 kts 144°
2026-04-20 23:48 33.27242 25.22555 39069 ft 543 kts 144°
2026-04-20 23:48 33.21574 25.28522 39072 ft 543 kts 144°
2026-04-20 23:49 33.15902 25.34481 39069 ft 543 kts 144°
2026-04-20 23:49 33.10223 25.40438 39072 ft 544 kts 144°
2026-04-20 23:50 33.04542 25.46386 39071 ft 544 kts 144°
2026-04-20 23:50 32.98897 25.52286 39071 ft 543 kts 144°
2026-04-20 23:51 32.93219 25.58211 39074 ft 542 kts 144°
2026-04-20 23:51 32.87543 25.64122 39072 ft 542 kts 144°
2026-04-20 23:52 32.81863 25.70026 39075 ft 543 kts 144°
2026-04-20 23:52 32.76174 25.75929 39076 ft 543 kts 144°
2026-04-20 23:53 32.70485 25.81822 39054 ft 543 kts 144°
2026-04-20 23:53 32.64793 25.87709 39071 ft 543 kts 144°
2026-04-20 23:54 32.59094 25.93592 39075 ft 543 kts 144°
2026-04-20 23:54 32.53390 25.99469 39074 ft 544 kts 144°
2026-04-20 23:55 32.47676 26.05347 39071 ft 544 kts 144°
2026-04-20 23:55 32.41955 26.11222 39075 ft 544 kts 145°
2026-04-20 23:56 32.36231 26.17091 39078 ft 545 kts 145°
2026-04-20 23:56 32.30497 26.22958 39063 ft 545 kts 145°
2026-04-20 23:57 32.24754 26.28824 39076 ft 546 kts 145°
2026-04-20 23:57 32.19040 26.34651 39079 ft 547 kts 145°
2026-04-20 23:58 32.13279 26.40516 39078 ft 547 kts 145°
2026-04-20 23:58 32.07520 26.46369 39077 ft 547 kts 145°
2026-04-20 23:59 32.01750 26.52223 39069 ft 547 kts 146°
2026-04-20 23:59 31.95982 26.58064 39073 ft 547 kts 146°
2026-04-21 00:00 31.90208 26.63902 39073 ft 547 kts 146°
2026-04-21 00:00 31.84431 26.69732 39078 ft 547 kts 146°
2026-04-21 00:01 31.78647 26.75559 39077 ft 547 kts 146°
2026-04-21 00:01 31.72868 26.81373 39075 ft 547 kts 146°
2026-04-21 00:02 31.67081 26.87183 39084 ft 547 kts 146°
2026-04-21 00:02 31.61285 26.92992 39084 ft 548 kts 146°
2026-04-21 00:03 31.55479 26.98802 39086 ft 549 kts 146°
2026-04-21 00:03 31.49670 27.04606 39089 ft 549 kts 146°
2026-04-21 00:04 31.43861 27.10400 39095 ft 549 kts 146°
2026-04-21 00:04 31.38042 27.16193 39093 ft 549 kts 146°
2026-04-21 00:05 31.32362 27.22219 39107 ft 559 kts 137°
2026-04-21 00:05 31.27658 27.29533 39090 ft 565 kts 129°
2026-04-21 00:06 31.23244 27.37142 39103 ft 566 kts 128°
2026-04-21 00:06 31.18872 27.44788 39102 ft 566 kts 128°
2026-04-21 00:07 31.14473 27.52410 39080 ft 566 kts 129°
2026-04-21 00:07 31.10032 27.59994 39090 ft 566 kts 129°
2026-04-21 00:08 31.05525 27.67517 39057 ft 565 kts 130°
2026-04-21 00:08 31.01033 27.74987 39086 ft 567 kts 130°
2026-04-21 00:09 30.96507 27.82530 39087 ft 568 kts 130°
2026-04-21 00:09 30.91983 27.90071 39086 ft 568 kts 130°
2026-04-21 00:10 30.87455 27.97606 39087 ft 568 kts 130°
2026-04-21 00:10 30.82922 28.05134 39086 ft 568 kts 130°
2026-04-21 00:11 30.78386 28.12650 39083 ft 568 kts 130°
2026-04-21 00:11 30.73843 28.20165 39083 ft 568 kts 130°
2026-04-21 00:12 30.69297 28.27669 39083 ft 568 kts 130°
2026-04-21 00:12 30.64745 28.35170 39046 ft 568 kts 131°
2026-04-21 00:13 30.60180 28.42675 39080 ft 570 kts 131°
2026-04-21 00:13 30.55598 28.50195 39078 ft 571 kts 131°
2026-04-21 00:14 30.51008 28.57717 39073 ft 571 kts 131°
2026-04-21 00:14 30.46413 28.65234 39072 ft 571 kts 131°
2026-04-21 00:15 30.41812 28.72745 39072 ft 572 kts 131°
2026-04-21 00:15 30.37204 28.80251 39075 ft 572 kts 131°
2026-04-21 00:16 30.32589 28.87756 39075 ft 572 kts 131°
2026-04-21 00:16 30.27973 28.95249 39076 ft 572 kts 131°
2026-04-21 00:17 30.23349 29.02740 39050 ft 572 kts 131°
2026-04-21 00:17 30.18709 29.10243 39075 ft 574 kts 131°
2026-04-21 00:18 30.14069 29.17764 39079 ft 575 kts 131°
2026-04-21 00:18 30.09443 29.25304 39076 ft 576 kts 131°
2026-04-21 00:19 30.04872 29.32900 39075 ft 576 kts 131°
2026-04-21 00:19 30.01074 29.39217 39072 ft 576 kts 131°
2026-04-21 00:20 29.95744 29.48032 39074 ft 576 kts 131°
2026-04-21 00:20 29.91147 29.55603 39070 ft 576 kts 131°
2026-04-21 00:21 29.86541 29.63171 39076 ft 577 kts 131°
2026-04-21 00:21 29.82676 29.69512 39075 ft 577 kts 131°
2026-04-21 00:22 29.78059 29.77075 39073 ft 577 kts 131°
2026-04-21 00:22 29.73440 29.84628 39064 ft 577 kts 131°
2026-04-21 00:23 29.68812 29.92181 39072 ft 578 kts 131°
2026-04-21 00:23 29.64170 29.99742 39073 ft 578 kts 131°
2026-04-21 00:24 29.59529 30.07291 39075 ft 578 kts 131°
2026-04-21 00:24 29.54913 30.14783 39071 ft 578 kts 132°
2026-04-21 00:25 29.50265 30.22314 39072 ft 578 kts 132°
2026-04-21 00:25 29.45612 30.29838 39077 ft 578 kts 132°
2026-04-21 00:26 29.40944 30.37350 39077 ft 577 kts 133°
2026-04-21 00:26 29.35675 30.44197 39162 ft 572 kts 141°
2026-04-21 00:26 29.32943 30.47508 39342 ft 570 kts 142°
2026-04-21 00:27 29.30201 30.50780 39544 ft 569 kts 142°
2026-04-21 00:27 29.27454 30.54036 39721 ft 568 kts 142°
2026-04-21 00:27 29.24710 30.57282 39888 ft 567 kts 142°
2026-04-21 00:27 29.21968 30.60527 40039 ft 567 kts 142°
2026-04-21 00:28 29.19230 30.63771 40180 ft 566 kts 142°
2026-04-21 00:28 29.16495 30.67015 40325 ft 566 kts 142°
2026-04-21 00:28 29.13763 30.70256 40464 ft 566 kts 142°
2026-04-21 00:28 29.11032 30.73496 40612 ft 565 kts 142°
2026-04-21 00:29 29.08302 30.76733 40739 ft 565 kts 143°
2026-04-21 00:29 29.05576 30.79962 40853 ft 565 kts 143°
2026-04-21 00:29 29.02846 30.83194 40922 ft 565 kts 143°
2026-04-21 00:30 28.97382 30.89651 41077 ft 566 kts 143°
2026-04-21 00:30 28.91909 30.96109 41075 ft 565 kts 143°
2026-04-21 00:31 28.86476 31.02510 41082 ft 565 kts 143°
2026-04-21 00:31 28.80999 31.08952 41072 ft 565 kts 143°
2026-04-21 00:32 28.75520 31.15386 41071 ft 565 kts 143°
2026-04-21 00:32 28.70039 31.21813 41068 ft 565 kts 143°
2026-04-21 00:33 28.64662 31.28388 41065 ft 570 kts 141°
2026-04-21 00:33 28.59390 31.35129 41064 ft 570 kts 141°
2026-04-21 00:34 28.54106 31.41859 41065 ft 570 kts 141°
2026-04-21 00:34 28.48799 31.48544 41062 ft 569 kts 141°
2026-04-21 00:35 28.43481 31.55205 41057 ft 569 kts 141°
2026-04-21 00:35 28.38192 31.61815 41062 ft 569 kts 141°
2026-04-21 00:36 28.32830 31.68510 41061 ft 569 kts 141°
2026-04-21 00:36 28.27538 31.75109 41060 ft 569 kts 142°
2026-04-21 00:37 28.22212 31.81741 41060 ft 569 kts 142°
2026-04-21 00:37 28.16880 31.88367 41056 ft 569 kts 142°
2026-04-21 00:38 28.11543 31.94991 41068 ft 569 kts 142°
2026-04-21 00:38 28.06203 32.01607 41066 ft 569 kts 142°
2026-04-21 00:38 28.03673 32.05101 41067 ft 580 kts 133°
2026-04-21 00:39 28.01511 32.08992 41047 ft 586 kts 128°
2026-04-21 00:39 27.97497 32.17054 41048 ft 590 kts 125°
2026-04-21 00:40 27.93610 32.25232 41044 ft 590 kts 125°
2026-04-21 00:40 27.89715 32.33403 41016 ft 590 kts 126°
2026-04-21 00:41 27.85783 32.41551 41036 ft 592 kts 126°
2026-04-21 00:41 27.81829 32.49701 41038 ft 591 kts 126°
2026-04-21 00:42 27.77876 32.57835 41029 ft 591 kts 126°
2026-04-21 00:42 27.73919 32.65961 41024 ft 591 kts 126°
2026-04-21 00:43 27.69951 32.74094 41016 ft 592 kts 126°
2026-04-21 00:43 27.65980 32.82220 41016 ft 592 kts 126°
2026-04-21 00:44 27.62002 32.90346 40996 ft 591 kts 126°
2026-04-21 00:44 27.58045 32.98413 40998 ft 592 kts 126°
2026-04-21 00:45 27.52067 33.10584 40997 ft 592 kts 126°
2026-04-21 00:45 27.48066 33.18690 40981 ft 591 kts 126°
2026-04-21 00:46 27.44070 33.26775 40981 ft 591 kts 126°
2026-04-21 00:46 27.40073 33.34854 40982 ft 591 kts 126°
2026-04-21 00:47 27.36075 33.42922 40972 ft 591 kts 126°
2026-04-21 00:47 27.32070 33.50985 40965 ft 590 kts 126°
2026-04-21 00:48 27.28066 33.59027 40966 ft 589 kts 126°
2026-04-21 00:48 27.24058 33.67065 40965 ft 589 kts 127°
2026-04-21 00:49 27.20047 33.75093 40939 ft 589 kts 127°
2026-04-21 00:49 27.16448 33.83429 40939 ft 597 kts 118°
2026-04-21 00:50 27.13303 33.92064 40939 ft 598 kts 117°
2026-04-21 00:50 27.10239 34.00751 40937 ft 598 kts 117°
2026-04-21 00:51 27.07176 34.09419 40936 ft 597 kts 117°
2026-04-21 00:51 27.04092 34.18068 40928 ft 597 kts 117°
2026-04-21 00:52 27.00998 34.26704 40921 ft 597 kts 117°
2026-04-21 00:52 26.97897 34.35332 40919 ft 596 kts 117°
2026-04-21 00:53 26.94812 34.43888 40914 ft 596 kts 117°
2026-04-21 00:53 26.91701 34.52503 40914 ft 596 kts 117°
2026-04-21 00:54 26.88585 34.61117 40911 ft 597 kts 117°
2026-04-21 00:54 26.85463 34.69728 40903 ft 597 kts 117°
2026-04-21 00:55 26.82336 34.78335 40897 ft 597 kts 117°
2026-04-21 00:55 26.79203 34.86941 40892 ft 597 kts 118°
2026-04-21 00:56 26.76065 34.95546 40889 ft 597 kts 117°
2026-04-21 00:56 26.72925 35.04147 40889 ft 597 kts 118°
2026-04-21 00:57 26.69776 35.12739 40883 ft 597 kts 118°
2026-04-21 00:57 26.66623 35.21325 40880 ft 597 kts 118°
2026-04-21 00:58 26.63465 35.29910 40874 ft 597 kts 118°
2026-04-21 00:58 26.60305 35.38484 40872 ft 597 kts 118°
2026-04-21 00:59 26.57141 35.47050 40867 ft 597 kts 118°
2026-04-21 00:59 26.53966 35.55540 40860 ft 596 kts 118°
2026-04-21 01:00 26.50700 35.64043 40863 ft 596 kts 119°
2026-04-21 01:00 26.47428 35.72537 40860 ft 596 kts 119°
2026-04-21 01:01 26.44164 35.81030 40854 ft 595 kts 118°
2026-04-21 01:01 26.40912 35.89500 40857 ft 593 kts 118°
2026-04-21 01:02 26.37659 35.97952 40852 ft 593 kts 118°
2026-04-21 01:02 26.34400 36.06397 40851 ft 593 kts 119°
2026-04-21 01:03 26.31135 36.14840 40850 ft 593 kts 119°
2026-04-21 01:03 26.27868 36.23272 40853 ft 593 kts 119°
2026-04-21 01:04 26.24597 36.31699 40854 ft 592 kts 119°
2026-04-21 01:04 26.21322 36.40117 40856 ft 592 kts 119°
2026-04-21 01:05 26.17983 36.48489 40853 ft 588 kts 124°
2026-04-21 01:05 26.14161 36.56530 40852 ft 587 kts 125°
2026-04-21 01:06 26.10242 36.64497 40850 ft 587 kts 125°
2026-04-21 01:06 26.06299 36.72445 40857 ft 587 kts 125°
2026-04-21 01:07 26.02359 36.80391 40855 ft 587 kts 125°
2026-04-21 01:07 25.98425 36.88333 40856 ft 587 kts 125°
2026-04-21 01:08 25.94486 36.96274 40858 ft 587 kts 125°
2026-04-21 01:08 25.90547 37.04203 40863 ft 587 kts 125°
2026-04-21 01:09 25.86597 37.12136 40860 ft 587 kts 125°
2026-04-21 01:09 25.82645 37.20060 40861 ft 587 kts 125°
2026-04-21 01:10 25.78692 37.27979 40863 ft 587 kts 125°
2026-04-21 01:10 25.74745 37.35907 40877 ft 587 kts 125°
2026-04-21 01:11 25.71467 37.42500 40877 ft 587 kts 125°
2026-04-21 01:11 25.67518 37.50419 40880 ft 587 kts 125°
2026-04-21 01:12 25.63561 37.58329 40887 ft 587 kts 125°
2026-04-21 01:12 25.59601 37.66236 40880 ft 587 kts 125°
2026-04-21 01:13 25.55638 37.74132 40872 ft 586 kts 125°
2026-04-21 01:13 25.51671 37.82020 40870 ft 586 kts 125°
2026-04-21 01:14 25.47699 37.89908 40871 ft 587 kts 125°
2026-04-21 01:14 25.43724 37.97789 40855 ft 586 kts 125°
2026-04-21 01:15 25.39748 38.05655 40859 ft 585 kts 125°
2026-04-21 01:15 25.35774 38.13510 40862 ft 585 kts 125°
2026-04-21 01:16 25.31793 38.21361 40855 ft 585 kts 125°
2026-04-21 01:16 25.27826 38.29177 40867 ft 582 kts 125°
2026-04-21 01:17 25.23863 38.36969 40868 ft 582 kts 125°
2026-04-21 01:17 25.19896 38.44754 40877 ft 582 kts 125°
2026-04-21 01:18 25.15926 38.52532 40881 ft 582 kts 125°
2026-04-21 01:18 25.11951 38.60305 40883 ft 582 kts 125°
2026-04-21 01:19 25.07971 38.68056 40881 ft 579 kts 125°
2026-04-21 01:19 25.04035 38.75717 40891 ft 577 kts 125°
2026-04-21 01:20 25.00077 38.83408 40888 ft 577 kts 125°
2026-04-21 01:20 24.96111 38.91098 40888 ft 577 kts 125°
2026-04-21 01:21 24.92148 38.98775 40897 ft 576 kts 125°
2026-04-21 01:21 24.88180 39.06429 40898 ft 575 kts 125°
2026-04-21 01:22 24.84209 39.14078 40898 ft 575 kts 125°
2026-04-21 01:22 24.80241 39.21720 40907 ft 574 kts 125°
2026-04-21 01:23 24.76277 39.29348 40906 ft 574 kts 125°
2026-04-21 01:23 24.72307 39.36964 40913 ft 574 kts 125°
2026-04-21 01:24 24.68332 39.44584 40916 ft 574 kts 125°
2026-04-21 01:24 24.64350 39.52203 40922 ft 575 kts 125°
2026-04-21 01:25 24.60364 39.59813 40908 ft 575 kts 125°
2026-04-21 01:25 24.56457 39.67485 40910 ft 578 kts 119°
2026-04-21 01:26 24.55041 39.71639 40911 ft 584 kts 108°
2026-04-21 01:26 24.54244 39.76020 40910 ft 586 kts 100°
2026-04-21 01:26 24.53242 39.84850 40909 ft 587 kts 96°
2026-04-21 01:27 24.52454 39.93770 40912 ft 587 kts 96°
2026-04-21 01:27 24.51651 40.02685 40911 ft 587 kts 97°
2026-04-21 01:28 24.50800 40.11588 40914 ft 586 kts 97°
2026-04-21 01:28 24.49924 40.20489 40909 ft 586 kts 97°
2026-04-21 01:29 24.49042 40.29379 40918 ft 586 kts 97°
2026-04-21 01:29 24.48157 40.38272 40908 ft 586 kts 97°
2026-04-21 01:30 24.47269 40.47161 40917 ft 586 kts 97°
2026-04-21 01:30 24.46377 40.56041 40913 ft 585 kts 97°
2026-04-21 01:31 24.45481 40.64917 40908 ft 585 kts 97°
2026-04-21 01:31 24.44577 40.73796 40924 ft 585 kts 97°
2026-04-21 01:32 24.43665 40.82675 40919 ft 586 kts 97°
2026-04-21 01:32 24.42747 40.91563 40917 ft 586 kts 97°
2026-04-21 01:33 24.41826 41.00449 40928 ft 586 kts 97°
2026-04-21 01:33 24.40900 41.09327 40929 ft 586 kts 97°
2026-04-21 01:34 24.39971 41.18203 40937 ft 585 kts 97°
2026-04-21 01:34 24.39037 41.27070 40936 ft 585 kts 97°
2026-04-21 01:35 24.38098 41.35937 40937 ft 585 kts 97°
2026-04-21 01:35 24.37154 41.44802 40955 ft 585 kts 97°
2026-04-21 01:36 24.36205 41.53667 40943 ft 585 kts 97°
2026-04-21 01:36 24.35250 41.62535 40946 ft 586 kts 97°
2026-04-21 01:37 24.34289 41.71404 40941 ft 586 kts 97°
2026-04-21 01:37 24.33306 41.80269 40936 ft 586 kts 99°
2026-04-21 01:38 24.31408 41.88936 40944 ft 585 kts 107°
2026-04-21 01:38 24.29185 41.97516 40949 ft 585 kts 108°
2026-04-21 01:39 24.26910 42.06021 40948 ft 585 kts 108°
2026-04-21 01:39 24.24627 42.14586 40945 ft 585 kts 108°
2026-04-21 01:40 24.22355 42.23150 40942 ft 585 kts 108°
2026-04-21 01:40 24.20085 42.31714 40947 ft 585 kts 108°
2026-04-21 01:41 24.17811 42.40272 40947 ft 585 kts 108°
2026-04-21 01:41 24.15530 42.48828 40949 ft 585 kts 108°
2026-04-21 01:42 24.13245 42.57376 40945 ft 585 kts 108°
2026-04-21 01:42 24.10957 42.65913 40954 ft 584 kts 108°
2026-04-21 01:43 24.08672 42.74420 40951 ft 582 kts 108°
2026-04-21 01:43 24.06387 42.82910 40954 ft 582 kts 108°
2026-04-21 01:44 24.04098 42.91396 40955 ft 582 kts 108°
2026-04-21 01:44 24.01805 42.99878 40954 ft 581 kts 108°
2026-04-21 01:45 23.99504 43.08349 40954 ft 580 kts 108°
2026-04-21 01:45 23.97210 43.16783 40960 ft 579 kts 108°
2026-04-21 01:46 23.94911 43.25214 40960 ft 578 kts 108°
2026-04-21 01:46 23.92610 43.33636 40963 ft 578 kts 108°
2026-04-21 01:47 23.90307 43.42045 40966 ft 578 kts 108°
2026-04-21 01:47 23.87998 43.50459 40958 ft 579 kts 108°
2026-04-21 01:48 23.85680 43.58884 40952 ft 579 kts 108°
2026-04-21 01:48 23.83373 43.67251 40945 ft 579 kts 108°
2026-04-21 01:49 23.81044 43.75676 40939 ft 580 kts 108°
2026-04-21 01:49 23.78710 43.84099 40923 ft 580 kts 108°
2026-04-21 01:50 23.77147 43.92713 40918 ft 579 kts 96°
2026-04-21 01:50 23.76386 44.01461 40911 ft 579 kts 94°
2026-04-21 01:51 23.75767 44.10214 40908 ft 578 kts 93°
2026-04-21 01:51 23.75146 44.18961 40919 ft 578 kts 94°
2026-04-21 01:52 23.74162 44.32107 40908 ft 580 kts 94°
2026-04-21 01:53 23.73489 44.40877 40908 ft 580 kts 94°
2026-04-21 01:53 23.72812 44.49637 40910 ft 578 kts 94°
2026-04-21 01:54 23.72133 44.58376 40908 ft 578 kts 94°
2026-04-21 01:54 23.71450 44.67110 40909 ft 577 kts 94°
2026-04-21 01:55 23.70764 44.75817 40899 ft 576 kts 94°
2026-04-21 01:55 23.70074 44.84520 40908 ft 575 kts 94°
2026-04-21 01:56 23.69380 44.93216 40900 ft 575 kts 94°
2026-04-21 01:56 23.68679 45.01915 40891 ft 576 kts 94°
2026-04-21 01:57 23.67979 45.10549 40892 ft 574 kts 94°
2026-04-21 01:57 23.67270 45.19227 40908 ft 574 kts 94°
2026-04-21 01:58 23.66558 45.27899 40887 ft 575 kts 94°
2026-04-21 01:58 23.65839 45.36584 40881 ft 575 kts 94°
2026-04-21 01:59 23.65115 45.45270 40879 ft 576 kts 94°
2026-04-21 01:59 23.64385 45.53967 40877 ft 576 kts 94°
2026-04-21 02:00 23.63777 45.61186 40874 ft 574 kts 94°
2026-04-21 02:00 23.63043 45.69829 40870 ft 572 kts 94°
2026-04-21 02:01 23.62299 45.78513 40857 ft 571 kts 94°
2026-04-21 02:01 23.61556 45.87131 40854 ft 570 kts 94°
2026-04-21 02:02 23.60815 45.95679 40861 ft 570 kts 94°
2026-04-21 02:02 23.60063 46.04286 40871 ft 571 kts 94°
2026-04-21 02:03 23.59302 46.12961 40877 ft 571 kts 94°
2026-04-21 02:03 23.58544 46.21528 40876 ft 571 kts 94°
2026-04-21 02:04 23.57778 46.30147 40885 ft 571 kts 94°
2026-04-21 02:04 23.57007 46.38762 40907 ft 572 kts 94°
2026-04-21 02:05 23.56230 46.47394 40918 ft 572 kts 94°
2026-04-21 02:05 23.55449 46.56028 40916 ft 572 kts 94°
2026-04-21 02:06 23.54662 46.64658 40924 ft 571 kts 94°
2026-04-21 02:06 23.53870 46.73268 40929 ft 571 kts 94°
2026-04-21 02:07 23.53074 46.81871 40922 ft 570 kts 94°
2026-04-21 02:07 23.52275 46.90465 40925 ft 570 kts 95°
2026-04-21 02:08 23.51472 46.99063 40932 ft 570 kts 94°
2026-04-21 02:08 23.50664 47.07669 40920 ft 572 kts 94°
2026-04-21 02:09 23.49849 47.16282 40905 ft 571 kts 94°
2026-04-21 02:09 23.49032 47.24866 40907 ft 569 kts 94°
2026-04-21 02:10 23.48211 47.33445 40908 ft 569 kts 94°
2026-04-21 02:10 23.47386 47.42021 40901 ft 569 kts 94°
2026-04-21 02:11 23.46556 47.50593 40891 ft 570 kts 94°
2026-04-21 02:11 23.45722 47.59170 40889 ft 570 kts 94°
2026-04-21 02:12 23.44881 47.67758 40870 ft 571 kts 95°
2026-04-21 02:12 23.44033 47.76356 40881 ft 570 kts 94°
2026-04-21 02:13 23.43184 47.84942 40877 ft 571 kts 94°
2026-04-21 02:13 23.42328 47.93539 40874 ft 571 kts 94°
2026-04-21 02:14 23.41467 48.02137 40878 ft 571 kts 94°
2026-04-21 02:14 23.40607 48.10681 40859 ft 572 kts 95°
2026-04-21 02:15 23.39730 48.19349 40859 ft 572 kts 95°
2026-04-21 02:15 23.38853 48.27962 40847 ft 572 kts 94°
2026-04-21 02:16 23.37995 48.36504 40849 ft 571 kts 92°
2026-04-21 02:16 23.37579 48.45122 40864 ft 570 kts 89°
2026-04-21 02:17 23.37361 48.53748 40851 ft 571 kts 89°
2026-04-21 02:17 23.37081 48.62389 40851 ft 571 kts 90°
2026-04-21 02:18 23.36735 48.71032 40848 ft 572 kts 90°
2026-04-21 02:18 23.36364 48.79683 40846 ft 572 kts 90°
2026-04-21 02:19 23.35989 48.88335 40826 ft 572 kts 90°
2026-04-21 02:19 23.35614 48.96977 40839 ft 571 kts 90°
2026-04-21 02:20 23.35189 49.05607 40831 ft 572 kts 94°
2026-04-21 02:20 23.34119 49.14196 40836 ft 573 kts 96°
2026-04-21 02:21 23.32897 49.22776 40833 ft 574 kts 97°
2026-04-21 02:21 23.31642 49.31351 40846 ft 574 kts 97°
2026-04-21 02:22 23.30389 49.39937 40830 ft 575 kts 97°
2026-04-21 02:22 23.29140 49.48525 40823 ft 575 kts 97°
2026-04-21 02:23 23.27891 49.57101 40824 ft 573 kts 97°
2026-04-21 02:23 23.26639 49.65666 40824 ft 573 kts 97°
2026-04-21 02:24 23.25382 49.74231 40832 ft 574 kts 97°
2026-04-21 02:24 23.24119 49.82796 40821 ft 574 kts 97°
2026-04-21 02:25 23.22851 49.91364 40822 ft 574 kts 97°
2026-04-21 02:25 23.21578 49.99930 40801 ft 574 kts 97°
2026-04-21 02:26 23.20302 50.08486 40817 ft 573 kts 97°
2026-04-21 02:26 23.19032 50.16970 40820 ft 572 kts 97°
2026-04-21 02:27 23.17749 50.25508 40819 ft 573 kts 97°
2026-04-21 02:27 23.16461 50.34049 40818 ft 573 kts 97°
2026-04-21 02:28 23.15168 50.42589 40826 ft 573 kts 97°
2026-04-21 02:28 23.13870 50.51129 40815 ft 573 kts 97°
2026-04-21 02:29 23.12567 50.59674 40814 ft 573 kts 97°
2026-04-21 02:29 23.11261 50.68197 40817 ft 572 kts 97°
2026-04-21 02:30 23.09953 50.76712 40808 ft 572 kts 97°
2026-04-21 02:30 23.08639 50.85228 40821 ft 572 kts 97°
2026-04-21 02:31 23.07321 50.93744 40812 ft 572 kts 97°
2026-04-21 02:31 23.05998 51.02262 40813 ft 572 kts 97°
2026-04-21 02:32 23.04670 51.10778 40788 ft 572 kts 97°
2026-04-21 02:32 23.03339 51.19277 40814 ft 570 kts 97°
2026-04-21 02:33 23.02008 51.27748 40818 ft 569 kts 97°
2026-04-21 02:33 23.00673 51.36217 40815 ft 569 kts 97°
2026-04-21 02:34 22.99334 51.44685 40808 ft 569 kts 97°
2026-04-21 02:34 22.97990 51.53154 40807 ft 569 kts 97°
2026-04-21 02:35 22.96650 51.61557 40804 ft 569 kts 97°
2026-04-21 02:35 22.95298 51.70017 40805 ft 569 kts 97°
2026-04-21 02:36 22.93942 51.78470 40804 ft 569 kts 97°
2026-04-21 02:36 22.92581 51.86923 40813 ft 569 kts 97°
2026-04-21 02:37 22.91216 51.95369 40810 ft 569 kts 97°
2026-04-21 02:37 22.89846 52.03818 40813 ft 569 kts 97°
2026-04-21 02:38 22.88473 52.12259 40807 ft 569 kts 97°
2026-04-21 02:38 22.87095 52.20700 40807 ft 568 kts 97°
2026-04-21 02:39 22.85712 52.29140 40814 ft 568 kts 97°
2026-04-21 02:39 22.84329 52.37556 40803 ft 567 kts 97°
2026-04-21 02:40 22.82944 52.45959 40805 ft 566 kts 97°
2026-04-21 02:40 22.82306 52.54413 40803 ft 561 kts 88°
2026-04-21 02:41 22.82050 52.62857 40799 ft 560 kts 87°
2026-04-21 02:41 22.81856 52.71299 40803 ft 560 kts 87°
2026-04-21 02:42 22.81651 52.79737 40805 ft 560 kts 87°
2026-04-21 02:42 22.81428 52.88166 40799 ft 559 kts 87°
2026-04-21 02:43 22.81195 52.96595 40807 ft 559 kts 87°
2026-04-21 02:43 22.80958 53.05011 40813 ft 558 kts 87°
2026-04-21 02:44 22.80717 53.13410 40817 ft 557 kts 87°
2026-04-21 02:44 22.80475 53.21733 40811 ft 556 kts 87°
2026-04-21 02:45 22.80227 53.30111 40802 ft 556 kts 87°
2026-04-21 02:45 22.80016 53.37120 40809 ft 555 kts 88°
2026-04-21 02:46 22.79717 53.46844 40810 ft 555 kts 87°
2026-04-21 02:46 22.79457 53.55207 40810 ft 555 kts 87°
2026-04-21 02:47 22.79192 53.63571 40814 ft 555 kts 88°
2026-04-21 02:47 22.78966 53.70572 40809 ft 555 kts 88°
2026-04-21 02:48 22.78694 53.78931 40810 ft 555 kts 88°
2026-04-21 02:48 22.78416 53.87291 40810 ft 555 kts 88°
2026-04-21 02:49 22.78137 53.95636 40809 ft 553 kts 87°
2026-04-21 02:49 22.78908 54.03807 40823 ft 541 kts 73°
2026-04-21 02:50 22.80423 54.11716 40823 ft 539 kts 71°
2026-04-21 02:50 22.82068 54.19640 40815 ft 539 kts 71°
2026-04-21 02:51 22.83707 54.27564 40821 ft 539 kts 71°
2026-04-21 02:51 22.85316 54.35482 40828 ft 537 kts 71°
2026-04-21 02:52 22.86911 54.43399 40814 ft 537 kts 71°
2026-04-21 02:52 22.88501 54.51317 40821 ft 537 kts 71°
2026-04-21 02:53 22.90086 54.59221 40823 ft 536 kts 71°
2026-04-21 02:53 22.91666 54.67120 40827 ft 536 kts 71°
2026-04-21 02:54 22.93242 54.75013 40820 ft 536 kts 71°
2026-04-21 02:54 22.94811 54.82905 40829 ft 534 kts 72°
2026-04-21 02:55 22.96374 54.90787 40819 ft 534 kts 72°
2026-04-21 02:55 22.97933 54.98665 40824 ft 534 kts 72°
2026-04-21 02:56 22.99487 55.06540 40827 ft 533 kts 72°
2026-04-21 02:56 23.00032 55.09311 40827 ft 533 kts 72°
2026-04-21 03:08 23.00093 55.09620 42161 ft 533 kts 72°
2026-04-21 03:09 23.01055 55.13487 40730 ft 528 kts 64°
2026-04-21 03:09 23.02481 55.17044 40804 ft 516 kts 54°
2026-04-21 03:09 23.04391 55.20286 40834 ft 504 kts 44°
2026-04-21 03:09 23.06714 55.23055 40834 ft 491 kts 34°
2026-04-21 03:10 23.09379 55.25304 40848 ft 479 kts 24°
2026-04-21 03:10 23.12274 55.26995 40851 ft 468 kts 15°
2026-04-21 03:10 23.18411 55.28894 40840 ft 458 kts
2026-04-21 03:11 23.24605 55.30623 40836 ft 460 kts
2026-04-21 03:11 23.30799 55.32378 40838 ft 460 kts
2026-04-21 03:12 23.36987 55.34184 40837 ft 461 kts
2026-04-21 03:12 23.43176 55.36014 40849 ft 461 kts
2026-04-21 03:13 23.49372 55.37850 40838 ft 461 kts
2026-04-21 03:13 23.55564 55.39688 40840 ft 462 kts
2026-04-21 03:14 23.61766 55.41522 40837 ft 462 kts
2026-04-21 03:14 23.67967 55.43356 40837 ft 462 kts
2026-04-21 03:15 23.74170 55.45196 40840 ft 462 kts
2026-04-21 03:15 23.80352 55.47034 40404 ft 457 kts
2026-04-21 03:16 23.83429 55.47950 39657 ft 460 kts
2026-04-21 03:16 23.86520 55.48867 38924 ft 462 kts
2026-04-21 03:16 23.89626 55.49788 38172 ft 463 kts
2026-04-21 03:16 23.92746 55.50709 37225 ft 467 kts
2026-04-21 03:17 23.95903 55.51637 36147 ft 474 kts
2026-04-21 03:17 23.99071 55.52778 35219 ft 486 kts 17°
2026-04-21 03:17 24.02078 55.54549 34328 ft 498 kts 30°
2026-04-21 03:17 24.04839 55.56883 33379 ft 505 kts 36°
2026-04-21 03:18 24.07518 55.59405 32423 ft 509 kts 39°
2026-04-21 03:18 24.10148 55.62007 31471 ft 512 kts 40°
2026-04-21 03:18 24.12776 55.64660 30502 ft 515 kts 41°
2026-04-21 03:18 24.15412 55.67330 29417 ft 518 kts 41°
2026-04-21 03:19 24.18063 55.70006 28515 ft 517 kts 41°
2026-04-21 03:19 24.20700 55.72656 27800 ft 512 kts 40°
2026-04-21 03:19 24.23320 55.75276 27082 ft 507 kts 40°
2026-04-21 03:19 24.25920 55.77868 26359 ft 504 kts 40°
2026-04-21 03:20 24.28509 55.80444 25639 ft 501 kts 40°
2026-04-21 03:20 24.31045 55.82966 24944 ft 498 kts 40°
2026-04-21 03:20 24.33637 55.85544 24226 ft 495 kts 40°
2026-04-21 03:20 24.36147 55.88043 23549 ft 493 kts 39°
2026-04-21 03:21 24.38428 55.90315 22869 ft 489 kts 39°
2026-04-21 03:21 24.40902 55.92780 22167 ft 484 kts 40°
2026-04-21 03:21 24.43379 55.95250 21491 ft 478 kts 40°
2026-04-21 03:21 24.45613 55.97478 20899 ft 473 kts 40°
2026-04-21 03:22 24.48031 55.99891 20254 ft 468 kts 40°
2026-04-21 03:22 24.50428 56.02284 19594 ft 463 kts 40°
2026-04-21 03:22 24.52798 56.04652 18939 ft 459 kts 40°
2026-04-21 03:22 24.55145 56.07001 18279 ft 455 kts 40°
2026-04-21 03:23 24.57477 56.09329 17556 ft 451 kts 39°
2026-04-21 03:23 24.60012 56.11290 16874 ft 442 kts 26°
2026-04-21 03:23 24.62833 56.12512 16215 ft 433 kts 15°
2026-04-21 03:23 24.65731 56.13318 15557 ft 427 kts 10°
2026-04-21 03:24 24.68626 56.13921 14914 ft 421 kts
2026-04-21 03:24 24.71499 56.14423 14269 ft 415 kts
2026-04-21 03:24 24.74322 56.14885 13942 ft 402 kts
2026-04-21 03:24 24.77029 56.15281 13828 ft 383 kts
2026-04-21 03:25 24.79618 56.15116 13710 ft 364 kts 347°
2026-04-21 03:25 24.81975 56.14293 13553 ft 348 kts 338°
2026-04-21 03:25 24.84164 56.13290 13407 ft 334 kts 336°
2026-04-21 03:25 24.86249 56.12289 13245 ft 320 kts 335°
2026-04-21 03:26 24.88256 56.11312 12995 ft 311 kts 335°
2026-04-21 03:26 24.90206 56.10356 12848 ft 305 kts 335°
2026-04-21 03:26 24.92102 56.09325 12706 ft 302 kts 328°
2026-04-21 03:26 24.93724 56.07876 12196 ft 301 kts 310°
2026-04-21 03:27 24.94828 56.05941 11831 ft 298 kts 295°
2026-04-21 03:27 24.95655 56.03857 11457 ft 296 kts 292°
2026-04-21 03:27 24.96427 56.01766 11104 ft 294 kts 292°
2026-04-21 03:27 24.97186 55.99681 10756 ft 292 kts 292°
2026-04-21 03:28 24.97936 55.97611 10409 ft 290 kts 292°
2026-04-21 03:28 24.98682 55.95553 10055 ft 288 kts 292°
2026-04-21 03:28 24.99421 55.93509 9706 ft 286 kts 293°
2026-04-21 03:28 25.00156 55.91478 9330 ft 284 kts 293°
2026-04-21 03:29 25.00887 55.89456 8952 ft 284 kts 293°
2026-04-21 03:29 25.01615 55.87440 8582 ft 283 kts 293°
2026-04-21 03:29 25.02342 55.85423 8211 ft 283 kts 293°
2026-04-21 03:29 25.03067 55.83415 7850 ft 282 kts 293°
2026-04-21 03:30 25.03792 55.81404 7493 ft 282 kts 293°
2026-04-21 03:30 25.04514 55.79399 7138 ft 281 kts 293°
2026-04-21 03:30 25.05235 55.77399 6786 ft 281 kts 293°
2026-04-21 03:30 25.05955 55.75399 6427 ft 280 kts 293°
2026-04-21 03:31 25.06671 55.73408 6076 ft 277 kts 293°
2026-04-21 03:31 25.07378 55.71443 5720 ft 274 kts 293°
2026-04-21 03:31 25.08068 55.69520 5341 ft 263 kts 293°
2026-04-21 03:31 25.08723 55.67697 4998 ft 249 kts 292°
2026-04-21 03:32 25.09346 55.65960 4666 ft 237 kts 292°
2026-04-21 03:32 25.09977 55.64314 4341 ft 230 kts 297°
2026-04-21 03:32 25.10729 55.62799 4024 ft 220 kts 303°
2026-04-21 03:32 25.11508 55.61409 3749 ft 206 kts 304°
2026-04-21 03:33 25.12005 55.60537 3565 ft 199 kts 304°
2026-04-21 03:33 25.12948 55.58831 3238 ft 194 kts 303°
2026-04-21 03:33 25.13409 55.57970 3065 ft 192 kts 303°
2026-04-21 03:33 25.14299 55.56298 2742 ft 190 kts 303°
2026-04-21 03:34 25.14976 55.55044 2509 ft 189 kts 303°
2026-04-21 03:34 25.15634 55.53841 2274 ft 176 kts 303°
2026-04-21 03:34 25.16256 55.52713 2031 ft 170 kts 304°
2026-04-21 03:34 25.16674 55.51964 1907 ft 168 kts 304°
2026-04-21 03:35 25.17285 55.50871 1861 ft 167 kts 304°
2026-04-21 03:35 25.17901 55.49775 1861 ft 168 kts 304°
2026-04-21 03:35 25.18516 55.48672 1850 ft 169 kts 304°
2026-04-21 03:35 25.19109 55.47599 1677 ft 158 kts 304°
2026-04-21 03:36 25.19661 55.46592 1474 ft 149 kts 304°
2026-04-21 03:36 25.20187 55.45642 1289 ft 142 kts 304°
2026-04-21 03:36 25.20699 55.44719 1110 ft 140 kts 303°
2026-04-21 03:36 25.21202 55.43813 924 ft 140 kts 303°
2026-04-21 03:37 25.21719 55.42882 754 ft 140 kts 302°
2026-04-21 03:37 25.22225 55.41967 575 ft 140 kts 302°
2026-04-21 03:37 25.22736 55.41054 398 ft 140 kts 302°
2026-04-21 03:37 25.23249 55.40145 230 ft 139 kts 302°
2026-04-21 03:38 25.23733 55.39239 48 ft 138 kts 299°
2026-04-21 03:38 25.24164 55.38451 37 ft 85 kts 302°
2026-04-21 03:38 25.24331 55.38153 38 ft 23 kts 302°
2026-04-21 03:38 25.24420 55.37993 37 ft 26 kts 301°
2026-04-21 03:39 25.24516 55.37818 35 ft 28 kts 301°
2026-04-21 03:39 25.24600 55.37620 34 ft 29 kts 283°
2026-04-21 03:39 25.24616 55.37460 32 ft 14 kts 272°
2026-04-21 03:39 25.24620 55.37338 30 ft 18 kts 272°
2026-04-21 03:40 25.24659 55.37201 29 ft 20 kts 301°
2026-04-21 03:40 25.24725 55.37083 30 ft 18 kts 302°
2026-04-21 03:40 25.24760 55.36957 29 ft 17 kts 240°
2026-04-21 03:40 25.24654 55.36877 27 ft 20 kts 211°
2026-04-21 03:41 25.24529 55.36792 27 ft 22 kts 211°
2026-04-21 03:41 25.24403 55.36725 27 ft 17 kts 175°
2026-04-21 03:41 25.24322 55.36823 27 ft 19 kts 121°
2026-04-21 03:41 25.24264 55.36926 27 ft 14 kts 122°
2026-04-21 03:42 25.24218 55.37008 27 ft 10 kts 122°
2026-04-21 03:42 25.24218 55.37057 27 ft 6 kts 46°
2026-04-21 03:42 25.24245 55.37074 27 ft 0 kts 28°
2026-04-21 03:42 25.24269 55.37089 27 ft 4 kts 31°
2026-04-21 03:43 25.24284 55.37099 27 ft 0 kts 31°